George Downer Airport

Jump to: basic info | weather | frequencies | runways | comments

Related pages: nearby airports | nearby navaids | notams | map

Basic information (top)

Codes: AIV KAIV
Location: lon 33.106499, lat -88.197800, elev 150 ft / 46 m msl
Status: small_airport

Weather (top)

Current conditions for Golden Triangle Regional Airport 29nm (53km) NW (rec'd 2015/04/19 23:45Z):

KGTR 192345Z 23005KT 10SM SKC 24/14 A2967 RMK ATIS "U"

Airport forecast for Golden Triangle Regional Airport 29nm (53km) NW (rec'd 2015/04/19 00:51Z):

TAF KGTR 192348Z 2000/2024 18006KT P6SM SKC 
     FM200500 19011KT P6SM VCTS SCT040 SCT060CB 
     FM200700 21012KT P6SM SCT100 
     FM201100 27008KT 6SM BR OVC015 
     FM201700 30010G16KT P6SM BKN025 
     FM202000 31012G21KT P6SM BKN040

Frequencies (top)

Verify before use: may be inaccurate or out of date.

UNIC: 122.8 MHz (CTAF/UNICOM)

Runways (top)

06/24: 4,970 x 80 ft (1,515 x 24 m) — paved — lighted — threshold 06 displaced 200 ft (61 m) — threshold 24 displaced 615 ft (187 m)

Latest comments (top)

No comments yet for George Downer Airport

More... (top)

See also NOTAMs and nearby airports and navaids, or visit the George Downer Airport page at the main OurAirports website..